Wind_Speed
103 99 96 91 83 68 60 59 49 36 30 29 28 33 41 51 53 62 66 67 74 77 82 87 88 90 91 90 85 83 80 76 78 76 77 73 70 68 69 70 66 63 62 60 60 60 58
97 101 96 92 83 74 60 58 54 45 36 31 30 40 43 47 60 63 60 63 69 71 78 84 85 85 86 84 84 81 77 74 78 75 77 72 69 67 67 68 67 67 65 66 64 62 62
94 99 95 92 85 74 64 51 48 46 39 31 26 25 34 46 48 45 55 59 63 68 74 78 78 78 79 80 80 78 74 72 75 75 77 70 64 64 60 64 61 62 63 63 64 65 66
87 93 97 92 86 74 67 51 42 40 39 30 27 25 26 26 32 40 49 53 55 60 67 71 70 72 72 74 74 73 71 68 72 73 73 69 68 71 68 69 66 67 71 70 68 66 67
82 87 91 90 85 76 65 57 41 35 37 33 33 30 33 34 33 44 45 46 52 57 61 61 62 65 66 67 68 70 68 65 69 73 69 68 67 67 67 67 69 69 70 69 69 69 69
75 81 87 91 87 78 71 60 49 38 34 34 37 38 39 37 37 39 41 45 51 53 51 51 54 57 60 61 62 64 66 66 67 70 71 68 66 65 65 65 65 69 69 70 69 70 70
68 77 80 86 88 81 71 61 55 44 38 35 35 35 37 38 39 43 46 50 53 49 45 47 48 49 50 51 54 58 61 64 64 64 64 64 64 65 67 67 65 64 67 68 69 69 68
61 69 74 80 84 81 73 64 53 48 44 43 38 35 36 39 39 40 41 41 41 39 35 32 31 33 36 39 44 48 53 59 61 61 63 65 64 60 63 63 62 63 62 61 63 66 66
55 61 68 73 78 81 76 67 54 48 44 45 41 42 41 45 45 42 38 33 29 25 24 24 24 26 29 35 40 46 52 56 59 61 63 65 65 66 67 66 68 69 70 71 71 71 70
49 53 60 67 70 76 77 74 63 46 43 43 41 41 42 42 38 35 31 28 26 23 19 19 21 24 26 29 34 40 50 55 58 59 61 61 61 62 65 66 67 67 68 69 71 71 72
42 46 52 58 64 68 71 73 69 56 38 38 38 36 34 32 33 30 27 23 19 18 19 17 17 20 21 22 27 30 39 47 52 55 55 55 56 59 60 61 63 67 68 70 71 69 67
35 40 44 50 55 60 64 67 69 63 49 34 34 29 28 27 26 24 20 20 21 20 18 17 17 17 17 20 23 27 30 33 41 47 50 52 55 57 60 64 66 67 67 64 62 59 55
27 32 37 41 47 51 56 59 62 64 57 46 27 23 24 25 24 23 22 21 19 19 19 21 19 19 18 17 16 16 18 22 28 32 37 41 45 46 49 50 49 48 46 46 46 49 53
22 25 29 33 37 43 47 52 55 57 59 57 48 38 25 17 22 21 21 20 21 20 20 20 20 20 18 17 16 16 16 19 22 25 28 30 32 33 33 35 38 40 42 44 46 39 32
18 19 22 25 28 32 38 41 45 48 51 51 52 48 41 32 22 14 12 14 16 15 15 16 15 15 14 14 15 14 15 17 18 19 23 27 29 32 35 37 34 30 23 20 21 21 16
16 16 17 20 21 23 27 32 35 39 42 44 46 45 44 43 37 30 25 19 13 11 10 10 10 9 11 10 10 8 8 9 11 12 12 11 11 10 11 10 10 9 7 7 8 8 8
15 18 17 17 17 16 19 21 24 29 31 34 37 39 39 41 40 39 36 32 29 25 22 18 16 15 14 14 13 12 11 9 8 9 10 10 11 12 13 14 15 15 16 16 16 17 19
18 16 15 17 16 12 12 14 15 16 21 24 27 29 31 32 34 34 33 33 33 35 35 34 33 31 30 29 27 27 27 27 27 26 27 28 27 28 28 28 26 25 24 23 24 25 23
15 15 16 13 16 15 11 9 9 10 12 13 15 18 21 23 25 25 26 28 29 28 28 29 29 28 29 29 27 26 26 26 28 28 26 25 22 21 22 20 20 20 22 21 19 17 17
14 15 12 15 13 15 16 13 9 7 6 6 8 8 9 11 15 17 16 17 18 20 20 19 20 19 18 17 16 14 14 16 17 16 16 16 15 13 11 9 8 8 10 11 12 11 12
19 17 15 13 13 13 14 16 16 15 9 9 7 3 3 2 3 4 6 10 11 9 11 12 13 13 12 12 10 9 8 8 8 8 9 9 9 10 9 7 5 5 3 3 1 2 1
26 24 21 16 14 14 12 13 17 19 20 18 12 12 11 7 6 7 9 7 4 3 6 8 10 10 9 8 8 7 7 7 6 7 4 5 5 6 8 8 8 8 8 5 5 5 8
32 28 26 25 21 19 17 17 16 15 19 23 23 20 16 17 16 16 16 18 17 16 15 13 12 11 13 13 14 15 14 13 13 14 15 14 15 16 19 12 18 19 17 19 19 16 18
36 34 32 31 28 27 25 24 23 22 22 20 21 24 25 24 24 22 23 24 24 25 24 24 23 23 23 21 22 22 22 22 24 22 24 25 23 22 27 27 23 26 26 25 25 24 25
44 40 43 39 36 33 32 29 30 27 30 29 27 25 25 26 27 29 30 31 32 31 30 31 32 33 32 29 31 31 32 33 35 36 36 33 33 33 34 37 36 36 38 35 35 33 34
51 47 44 43 43 37 38 39 36 35 34 34 36 30 32 30 28 26 29 31 36 38 39 40 40 38 37 37 38 40 41 42 42 44 43 41 39 40 40 40 40 46 45 45 48 46 46
60 60 56 50 49 49 43 41 41 42 42 42 42 40 37 38 39 37 38 40 39 38 41 44 45 47 46 46 45 45 46 47 47 47 50 49 47 46 48 45 48 51 54 52 51 49 48
64 67 66 66 63 59 55 57 54 49 49 46 45 46 46 46 46 49 47 46 48 48 49 49 47 49 49 51 53 55 52 52 53 52 52 54 56 55 56 57 56 59 60 60 58 57 58
66 68 71 70 68 71 69 67 64 66 61 58 55 52 57 55 55 55 52 52 55 57 55 58 59 58 57 58 55 56 57 57 56 57 62 62 64 62 64 65 67 67 67 68 68 67 67
Wind_Direction
15 15 16 20 23 23 31 46 49 64 86 103 124 143 158 165 174 188 193 189 188 191 195 200 205 208 212 215 217 220 223 223 225 228 231 231 233 236 239 241 243 243 245 250 254 256 258
16 17 17 19 24 26 28 42 50 52 68 92 121 140 156 172 177 183 186 184 185 188 192 197 201 205 209 212 215 218 221 222 224 228 231 233 235 237 240 244 247 249 250 250 252 256 260
19 18 19 20 23 28 30 37 48 57 57 75 110 142 158 168 175 183 181 181 182 185 190 191 197 202 206 209 213 216 220 222 224 229 232 233 235 236 238 241 244 248 252 254 256 258 261
22 20 20 21 24 27 30 36 50 55 61 69 77 114 136 151 161 161 169 175 179 180 186 191 195 200 204 209 213 216 220 222 224 229 233 234 234 237 240 242 243 245 250 254 259 260 261
25 23 22 23 26 29 33 35 45 58 72 78 95 107 123 129 146 153 159 167 173 178 183 189 195 199 203 208 211 216 220 222 223 227 231 234 238 241 243 247 250 254 255 256 258 261 264
28 28 24 25 28 29 33 38 42 54 74 81 97 113 122 129 139 147 155 161 165 172 178 183 191 198 203 208 212 217 220 223 225 230 234 237 239 242 247 249 251 254 257 261 262 265 268
29 34 29 28 28 31 33 37 45 57 70 85 98 114 122 127 133 141 150 154 162 169 174 180 189 195 203 209 214 219 222 225 228 230 234 237 239 241 244 248 251 256 261 263 266 268 270
29 34 35 31 30 32 35 37 44 54 65 76 88 105 112 119 122 130 139 148 157 166 173 182 191 204 212 217 219 220 223 225 228 229 232 235 235 238 246 249 250 254 258 259 263 266 268
28 32 37 38 34 34 38 40 42 54 61 74 85 96 101 103 108 112 115 121 132 146 163 176 188 201 208 214 218 219 218 217 219 223 227 232 236 240 244 248 253 256 258 262 265 267 269
29 33 39 41 41 37 38 42 45 53 64 73 80 94 102 106 108 110 114 120 128 138 153 170 184 195 203 212 217 217 217 217 219 225 231 236 240 244 249 252 255 258 262 264 266 269 271
29 31 35 42 44 45 41 40 46 50 63 75 82 86 94 103 111 114 120 127 136 148 153 160 172 185 197 204 212 216 220 226 227 232 237 241 247 250 253 257 260 262 265 267 269 272 273
30 31 34 40 46 48 48 45 44 50 58 76 82 92 99 103 108 113 120 129 139 145 147 150 159 174 186 198 206 214 220 226 231 235 240 244 248 251 254 258 262 264 266 268 272 273 273
29 33 34 37 43 51 53 51 52 50 52 63 68 75 107 114 115 113 113 117 123 125 129 131 132 135 142 151 166 184 205 217 228 235 242 247 250 253 255 258 261 264 265 267 272 276 278
19 29 36 37 39 46 56 59 57 59 57 56 59 68 84 121 119 117 123 124 127 130 130 134 137 141 149 158 170 183 197 209 220 228 233 240 245 249 254 259 263 267 271 273 278 281 279
356 13 27 36 39 42 49 57 64 62 61 63 62 65 68 77 93 110 110 134 144 147 152 157 161 170 180 185 191 201 218 228 236 245 251 257 259 260 263 266 267 269 263 259 262 270 274
333 344 359 21 34 41 46 52 58 67 71 67 68 70 71 73 77 82 88 94 110 132 148 159 175 184 193 204 208 208 205 205 210 222 229 235 236 239 242 244 244 245 246 236 226 200 174
345 329 332 346 10 30 42 49 51 59 68 74 75 74 74 77 78 81 84 87 90 94 101 105 109 114 124 130 135 138 136 139 146 147 143 138 133 129 128 123 120 121 127 128 122 109 104
0 2 320 317 331 359 20 41 42 47 56 60 76 79 79 80 83 85 84 85 88 93 99 101 104 106 107 108 109 108 104 104 107 112 113 111 109 106 105 106 105 104 101 98 95 93 91
339 357 0 333 306 319 334 359 25 34 42 48 53 71 82 88 90 87 89 90 93 96 100 101 100 104 104 106 103 106 108 111 115 114 114 114 112 112 112 114 108 106 105 101 100 98 98
317 327 336 347 331 303 306 313 327 348 357 22 32 50 54 68 84 94 96 94 99 105 109 111 109 113 109 106 105 100 101 108 115 116 121 124 123 123 125 124 116 116 106 102 91 83 73
290 302 309 320 328 324 294 290 299 304 315 319 315 341 354 351 34 12 67 111 116 120 130 136 143 144 148 150 151 143 132 146 151 155 160 165 165 165 168 166 160 158 148 131 69 66 79
288 280 279 286 302 309 318 290 289 291 297 300 296 296 291 278 287 293 295 304 267 216 180 177 185 186 190 199 196 192 203 210 196 213 233 228 245 261 280 272 248 255 269 266 253 264 267
279 275 278 270 278 280 281 291 296 294 281 277 286 283 280 276 278 278 277 283 286 280 272 269 260 245 229 234 232 229 237 246 245 249 255 255 261 265 271 269 279 292 280 270 274 269 274
273 272 272 270 277 281 281 266 278 285 284 284 277 279 280 278 278 275 272 272 273 276 279 276 266 261 262 263 260 265 269 271 269 265 258 267 266 266 271 278 281 280 278 280 278 275 283
274 269 272 273 274 273 277 282 267 278 281 283 279 272 270 273 277 279 277 275 274 270 270 273 275 274 274 269 269 273 273 274 275 276 275 271 272 272 270 279 277 278 279 279 281 280 282
271 276 266 269 270 274 276 275 274 269 273 273 276 273 265 264 266 272 277 276 274 274 276 276 274 272 273 274 273 274 275 277 279 278 277 274 272 274 271 276 277 283 284 288 284 284 279
269 268 268 269 269 269 264 268 264 267 270 272 268 266 267 264 261 264 267 274 274 275 273 271 270 273 274 274 273 273 272 275 275 275 278 280 280 277 275 279 281 279 282 282 283 283 281
267 265 264 269 270 267 265 264 264 263 260 264 266 263 270 274 275 267 270 272 269 273 272 271 269 269 270 270 270 272 273 273 273 273 275 276 277 277 280 280 277 277 279 281 283 283 281
267 270 265 266 269 268 268 268 268 267 264 265 267 269 268 266 268 270 270 272 274 274 276 269 270 270 270 270 271 271 270 270 271 272 274 275 277 276 278 277 277 278 279 279 282 282 283
Height
10556 10526 10499 10476 10456 10435 10420 10402 10401 10398 10395 10397 10401 10408 10415 10425 10439 10449 10464 10485 10504 10525 10546 10568 10591 10610 10627 10645 10661 10674 10686 10700 10709 10718 10726 10736 10745 10753 10760 10766 10772 10775 10779 10782 10785 10788 10790
10568 10538 10515 10491 10470 10454 10438 10425 10414 10416 10415 10412 10415 10417 10423 10433 10439 10452 10473 10494 10512 10531 10549 10569 10589 10607 10624 10643 10657 10670 10682 10694 10704 10712 10721 10731 10740 10747 10753 10758 10763 10768 10771 10774 10777 10779 10781
10579 10554 10530 10508 10486 10471 10458 10446 10434 10430 10430 10434 10434 10434 10439 10444 10455 10472 10487 10503 10519 10536 10556 10573 10591 10609 10624 10641 10655 10667 10678 10690 10701 10708 10717 10728 10735 10740 10746 10750 10754 10758 10761 10765 10768 10772 10773
10594 10571 10546 10525 10505 10487 10473 10467 10457 10446 10445 10447 10449 10452 10457 10465 10476 10488 10501 10515 10531 10547 10564 10580 10597 10612 10627 10641 10653 10666 10676 10687 10697 10705 10713 10721 10725 10731 10737 10742 10745 10747 10751 10757 10759 10762 10762
10608 10587 10565 10544 10524 10507 10492 10481 10475 10469 10461 10464 10463 10466 10470 10478 10490 10501 10514 10527 10541 10557 10572 10588 10603 10617 10629 10641 10652 10662 10673 10682 10691 10699 10706 10715 10721 10726 10731 10735 10739 10741 10744 10747 10749 10751 10752
10622 10604 10582 10561 10543 10524 10511 10499 10490 10486 10480 10479 10479 10483 10488 10494 10503 10514 10525 10537 10553 10568 10582 10595 10608 10620 10631 10641 10651 10660 10670 10678 10687 10695 10702 10710 10715 10720 10724 10727 10730 10732 10735 10736 10739 10740 10742
10636 10618 10601 10581 10560 10543 10529 10517 10508 10501 10497 10495 10495 10500 10506 10511 10517 10526 10537 10547 10562 10577 10591 10602 10613 10624 10634 10643 10652 10659 10668 10676 10684 10692 10699 10705 10709 10713 10716 10720 10723 10724 10725 10727 10728 10730 10731
10647 10633 10617 10601 10583 10565 10550 10537 10527 10521 10516 10511 10513 10517 10522 10527 10535 10543 10554 10566 10577 10589 10601 10613 10623 10631 10638 10645 10652 10658 10665 10672 10680 10686 10692 10697 10702 10706 10708 10711 10714 10716 10717 10718 10718 10718 10721
10657 10645 10632 10618 10602 10585 10571 10558 10549 10540 10537 10533 10534 10537 10542 10548 10557 10566 10574 10584 10594 10603 10611 10618 10625 10630 10636 10641 10647 10653 10659 10666 10673 10679 10685 10689 10694 10698 10700 10703 10705 10706 10707 10708 10708 10706 10708
10666 10658 10646 10633 10621 10606 10591 10579 10568 10560 10556 10555 10556 10557 10560 10565 10573 10580 10588 10595 10603 10609 10616 10621 10626 10630 10634 10639 10644 10650 10657 10664 10670 10675 10679 10684 10688 10690 10692 10693 10695 10696 10696 10696 10695 10694 10692
10674 10667 10659 10649 10637 10627 10613 10599 10588 10580 10575 10573 10574 10577 10580 10583 10586 10592 10598 10603 10608 10613 10618 10622 10626 10630 10634 10639 10643 10649 10655 10661 10666 10670 10675 10679 10682 10683 10684 10685 10685 10685 10684 10682 10681 10680 10679
10680 10674 10668 10661 10652 10642 10633 10622 10610 10600 10595 10592 10591 10591 10593 10596 10600 10603 10606 10609 10613 10617 10620 10624 10627 10630 10634 10638 10642 10646 10651 10657 10661 10665 10668 10671 10672 10673 10674 10675 10674 10673 10671 10670 10670 10669 10667
10687 10682 10676 10671 10665 10657 10648 10641 10632 10622 10613 10610 10606 10604 10604 10606 10609 10612 10614 10617 10620 10622 10625 10627 10630 10633 10637 10640 10643 10646 10650 10653 10656 10659 10661 10663 10664 10664 10664 10664 10663 10663 10663 10662 10662 10659 10656
10692 10688 10683 10679 10674 10669 10662 10655 10649 10642 10634 10627 10621 10618 10616 10616 10618 10620 10621 10623 10625 10627 10630 10632 10634 10637 10639 10642 10644 10646 10648 10651 10653 10654 10656 10656 10657 10657 10658 10658 10658 10656 10656 10655 10653 10651 10646
10695 10692 10689 10686 10683 10678 10674 10668 10661 10656 10651 10645 10640 10634 10629 10627 10628 10628 10629 10629 10631 10632 10633 10635 10637 10639 10641 10643 10645 10647 10648 10649 10650 10652 10653 10653 10653 10654 10653 10653 10651 10650 10648 10648 10648 10646 10643
10697 10695 10692 10690 10688 10685 10682 10679 10674 10668 10663 10659 10655 10651 10646 10643 10640 10638 10637 10636 10636 10637 10637 10638 10640 10641 10643 10645 10646 10647 10648 10648 10649 10649 10650 10650 10650 10650 10650 10649 10648 10647 10646 10646 10646 10645 10643
10699 10697 10695 10693 10690 10689 10687 10685 10682 10679 10675 10669 10666 10663 10660 10656 10654 10651 10649 10648 10646 10645 10644 10644 10644 10645 10647 10648 10649 10649 10650 10650 10650 10651 10651 10651 10651 10651 10650 10650 10650 10650 10650 10650 10649 10647 10646
10701 10698 10696 10694 10693 10690 10689 10688 10687 10684 10682 10680 10676 10672 10670 10667 10665 10664 10662 10660 10658 10656 10655 10655 10654 10654 10654 10654 10655 10655 10654 10654 10654 10655 10656 10656 10657 10657 10657 10657 10657 10657 10656 10655 10654 10653 10652
10703 10700 10697 10695 10693 10691 10690 10689 10688 10687 10686 10684 10683 10681 10678 10676 10673 10672 10670 10669 10668 10668 10667 10666 10665 10665 10664 10663 10663 10663 10663 10663 10663 10663 10663 10663 10663 10663 10663 10663 10662 10661 10660 10659 10659 10657 10656
10702 10700 10698 10696 10693 10692 10690 10689 10689 10688 10687 10686 10685 10685 10684 10683 10681 10678 10676 10675 10674 10674 10674 10673 10673 10672 10672 10671 10670 10670 10670 10669 10669 10669 10668 10668 10667 10667 10667 10666 10665 10664 10663 10661 10660 10659 10658
10700 10698 10696 10695 10694 10692 10690 10688 10687 10687 10688 10687 10685 10685 10685 10684 10684 10683 10682 10680 10679 10678 10677 10677 10676 10675 10675 10674 10673 10672 10672 10672 10671 10670 10670 10670 10670 10669 10668 10667 10666 10665 10664 10662 10661 10659 10657
10694 10694 10693 10691 10691 10691 10689 10688 10686 10684 10684 10685 10685 10684 10683 10683 10683 10683 10683 10682 10681 10680 10679 10678 10677 10677 10676 10675 10674 10673 10673 10672 10671 10671 10670 10670 10669 10668 10667 10666 10665 10663 10662 10661 10659 10657 10654
10687 10688 10687 10687 10686 10687 10687 10686 10685 10684 10682 10681 10680 10681 10681 10681 10680 10680 10680 10680 10680 10679 10678 10677 10676 10675 10674 10673 10672 10671 10670 10670 10669 10668 10667 10666 10664 10663 10661 10661 10660 10658 10657 10656 10654 10651 10649
10678 10679 10680 10680 10680 10680 10680 10681 10681 10680 10679 10678 10677 10676 10676 10676 10676 10675 10675 10675 10674 10674 10674 10673 10673 10672 10671 10670 10669 10668 10666 10665 10663 10663 10661 10660 10659 10658 10655 10653 10653 10651 10649 10649 10647 10644 10642
10668 10669 10670 10670 10671 10672 10671 10671 10672 10672 10672 10673 10672 10671 10670 10669 10669 10669 10669 10668 10667 10667 10666 10665 10664 10664 10664 10663 10663 10661 10660 10659 10658 10656 10654 10653 10651 10651 10648 10645 10644 10641 10638 10639 10638 10636 10633
10656 10656 10658 10660 10660 10661 10662 10662 10662 10663 10663 10663 10663 10664 10664 10663 10662 10661 10660 10659 10659 10659 10657 10657 10655 10654 10654 10653 10653 10651 10650 10649 10649 10647 10644 10643 10641 10640 10638 10637 10634 10629 10626 10626 10625 10625 10622
10641 10642 10643 10645 10647 10649 10650 10650 10651 10651 10652 10652 10652 10652 10653 10653 10652 10652 10650 10650 10648 10647 10646 10645 10644 10642 10641 10641 10640 10639 10638 10636 10636 10635 10631 10628 10628 10627 10625 10626 10623 10618 10613 10612 10612 10611 10609
10623 10626 10627 10628 10631 10633 10634 10637 10638 10638 10638 10639 10638 10638 10638 10638 10638 10639 10638 10638 10636 10635 10634 10631 10630 10627 10628 10627 10626 10625 10625 10623 10621 10621 10617 10616 10613 10612 10611 10609 10607 10601 10599 10597 10596 10595 10592
10601 10606 10609 10611 10612 10615 10615 10617 10618 10619 10621 10622 10622 10622 10623 10623 10623 10622 10621 10621 10619 10618 10618 10616 10615 10613 10613 10612 10612 10611 10609 10608 10605 10605 10600 10601 10596 10596 10593 10588 10584 10583 10584 10582 10580 10578 10573